Starlink 30984

operational
NORAD ID: 58480 Int'l Des: 2023-186 Owner: SPXS Country: US Constellation: starlink
LEOCIRCULAR

Starlink 30984について

説明を読み込み中...

リアルタイム位置

3D地球を読み込み中...

次回通過

高度履歴

Altitude vs Time

uPlot chart will show altitude changes over time

軌道要素

1 58480U 23186H 25352.76488597 .00000047 00000-0 18555-4 0 9995
2 58480 43.0021 146.7085 0001473 261.6883 98.3792 15.02539219113681
Epoch: Dec 18, 2025 • Age: 23 hours

現在のステータス

高度 569.4 km
速度 7.58 km/s
衛星直下点 -38.10°S, 22.92°E
打ち上げ日 Dec 3, 2023
運用期間 2 years
タイプ internet

技術仕様

分類 Payload
質量 730.00 kg
乾燥質量 700.00 kg
総質量 730.00 kg
長さ 0.30 m
直径 4.10 m
スパン 29.00 m
形状 Box + pan
製造者 SPXS
バスタイプ Starlink V2M
フェーズステータス In Orbit
所有者/国 SPXS/US

大規模コンステレーション

Loading constellations...